DELTA 1 DEB, 14883

Orbit data source: Space-Track

DELTA 1 DEB, 14883 is space debris in SSO originally from a launch on Tue, 06 Nov 1973 UTC launched from the Air Force Western Test Range (AFWTR). Debris objects in space refer to the collection of defunct objects orbiting the Earth. Examples of debris include non-operational satellites, rocket bodies, and fragments generated from explosions, collisions, or faulty payload assembly.

Loading next visibility...
Identifier
14883, 1973-086GS
Orbit
SSO
Country
Flag of USUS
Related business
Manufacturer
Unknown
Mission
Spacecraft
Bus & Motor
Unknown
Mass
Unknown
Launch date (UTC)
1973-11-06 (53 years ago)
Launch vehicle
Unknown
Launch site
Air Force Western Test Range (AFWTR)
Object type
Payload
Rocket body
Debris
Shape & HBR
Unknown shape, 0.1 m
Radar Cross Section
Medium (>0.1 m² and <1 m²)

Expand to show TLE details & history
Last TLE update: 11 hours ago

TLE from 11 hours ago
0 DELTA 1 DEB
1 14883U 73086GS  26265.00877102  .00000187  00000-0  25639-2 0  9997
2 14883 101.9876 100.2487 0249303 347.4864 170.4534 12.00263269639213
Epoch: 2026-09-22T00:12Z
TLE epoch observation values (Epoch: 2026-09-22T00:12:37.816Z)
Latitude
21.11596°
Longitude
-79.10776°
Altitude
1,880.167 km
Speed
6.864 km/s
True Right ascension
18h 59m 43s
True Declination
21° 00' 59"
Sunlit
Object was in daylight at epoch
Visualization orbit readout
Latitude
Unknown
Longitude
Unknown
Altitude
Unknown
Speed
Unknown
Apparent Right ascension
Unknown
Apparent Declination
Unknown
Sunlit
N/A
Visualization observer readout
Local Sidereal Time
04:01:26
Azimuth
Unknown
Elevation
Unknown
Doppler factor
Unknown
Orbital elements
Apogee altitude
1,878.131 km
Perigee altitude
1,476.481 km
Semi-major axis
8,055.443 km
Eccentricity
0.02493
Inclination
101.9876°
RAAN
100.2487°
Arg. of periapsis
347.4864°
True anomaly
170.91305°
Mean anomaly
170.4534°
Eccentric anomaly
170.68461°
Mean motion
3.00199 °/min
Orbital period
119.92 mins
BSTAR
0.0025639
Loading maneuver chart data...
Computing Atmospheric mass density...
Loading historical data...
Loading historical data...
Loading historical data...
Loading historical data...
Loading historical data...
Loading historical data...
Loading historical data...

Documentation

Showing up to 5 results
|